Miscellaneous Local Product
Issued by NWS Hastings, NE

Home | Current Version | Previous Version | Text Only | Print | Product List | Glossary Off
Versions: 1 2 3 4 5 6 7 8 9 10 11 12 13 14 15 16 17 18 19 20 21 22 23 24 25 26 27 28 29 30 31 32 33 34 35 36 37 38 39 40 41 42 43 44 45 46 47 48 49 50

659
AXUS43 KGID 020102
MISGRI

GID CWA HOURLY WEATHER ROUNDUP
NATIONAL WEATHER SERVICE HASTINGS NE
700 PM CST THU DEC 01 2016

NOTE: "FAIR" INDICATES FEW OR NO CLOUDS BELOW 12,000 FEET WITH NO
SIGNIFICANT WEATHER AND/OR OBSTRUCTIONS TO VISIBILITY.

...SOUTH CENTRAL NEBRASKA...

CITY           SKY/WX    TMP DP  RH WIND       PRES   REMARKS
GRAND ISLAND   CLEAR     28  23  81 E3        30.01R
HASTINGS       CLEAR     31  21  66 NE3       30.01R
KEARNEY        CLEAR     28  18  64 E3        30.00R
ORD            CLOUDY    33  22  63 CALM      30.00R
YORK           CLOUDY    32  25  74 CALM      30.03R
AURORA         CLOUDY    32  24  72 SE3       30.02R
LEXINGTON      CLEAR     29  19  66 CALM      29.98R
HOLDREGE       CLEAR     29  17  62 CALM      29.99R
HEBRON         CLEAR     29  22  73 CALM      30.03R

...NEBRASKA PANHANDLE...

CITY           SKY/WX    TMP DP  RH WIND       PRES   REMARKS
CHADRON        CLOUDY    35  21  56 NW9       29.97R WCI  28
ALLIANCE       CLOUDY    27  15  61 CALM      29.95R
SCOTTSBLUFF    CLOUDY    28  11  48 CALM      29.96R
SIDNEY         CLEAR     26  12  55 N3        29.96R

...WESTERN AND NORTH CENTRAL NEBRASKA...

CITY           SKY/WX    TMP DP  RH WIND       PRES   REMARKS
VALENTINE      CLOUDY    29  22  75 N5        30.00R WCI  24
AINSWORTH      CLOUDY    27  24  89 N3        29.99S
ONEILL         CLOUDY    30  26  86 CALM      30.02S
BROKEN BOW     CLEAR     30  21  69 N6        29.98R WCI  24
IMPERIAL       CLEAR     33  11  39 NW9       29.98R WCI  25
NORTH PLATTE   CLEAR     26  16  65 NW3       29.97R
MCCOOK         CLEAR     34  16  47 SE6       29.98R WCI  29

...EASTERN NEBRASKA...

CITY           SKY/WX    TMP DP  RH WIND       PRES   REMARKS
NORFOLK        CLOUDY    31  25  78 NW3       30.02R
SO SIOUX CITY  CLOUDY    36  30  79 NW5       30.04S WCI  32
TEKAMAH        CLOUDY    34  28  79 NW6       30.05R WCI  29
COLUMBUS       CLOUDY    32  23  69 CALM      30.04R
ALBION         CLOUDY    32  25  74 CALM      30.02R
OMAHA EPPLEY   CLOUDY    36  27  69 N3        30.04S
OFFUTT AFB     CLOUDY    33  28  83 W1        30.04R
MILLARD        CLOUDY    34  28  76 CALM      30.04R
LINCOLN        PTCLDY    32  24  72 N3        30.05R
NEBRASKA CITY  CLOUDY    33  24  69 CALM      30.04R
BEATRICE       CLEAR     29  23  77 CALM      30.03R
FALLS CITY     MOCLDY    36  25  64 CALM      30.04R

...NORTHERN KANSAS...

CITY           SKY/WX    TMP DP  RH WIND       PRES   REMARKS
GOODLAND       CLEAR     31   9  39 SW7       29.97R WCI  24
HILL CITY      CLEAR     27  15  61 CALM      30.00S
NORTON         CLEAR     34  10  37 CALM      29.99R
PHILLIPSBURG   CLEAR     36  18  48 NW3       30.01R
SMITH CENTER   CLEAR     30  19  64 E3        30.02R
BELOIT         CLEAR     28  18  64 CALM      30.03R
HAYS           CLEAR     35  16  45 SE3       30.02R
RUSSELL        CLEAR     34  16  47 S7        30.01R WCI  28
CONCORDIA      CLEAR     32  19  58 SW5       30.03R WCI  27
SALINA         CLEAR     32  22  66 CALM      30.05R
TOPEKA         CLEAR     30  22  72 CALM      30.06R



USA.gov is the U.S. government's official web portal to all federal, state and local government web resources and services.